Reid Restricted Landing Area

Jump to: basic info | weather | runways | comments

Related pages: nearby airports | nearby navaids | notams | map

Basic information (top)

Codes: 6IL6
Location: lon 42.118401, lat -88.407898, elev 920 ft / 280 m msl
Status: small_airport

Weather (top)

Current conditions for Dupage Airport 15nm (27km) SSE (rec'd 2014/11/26 04:52Z):

KDPA 260452Z 16005KT 6SM BR CLR M09/M11 A3017 RMK AO2 SLP231 I1000 T10941111

Airport forecast for Dupage Airport 15nm (27km) SSE (rec'd 2014/11/25 00:21Z):

TAF KDPA 252320Z 2600/2624 25007KT P6SM SCT015 
     FM260200 23005KT P6SM FEW015 SCT250 
     FM261300 15004KT P6SM BKN200 
     FM262100 07005KT P6SM OVC150

Runways (top)

E/W: 3,000 x 105 ft (914 x 32 m) — grass — not lighted

N/S: 2,100 x 105 ft (640 x 32 m) — grass — not lighted

Latest comments (top)

No comments yet for Reid Restricted Landing Area

More... (top)

See also NOTAMs and nearby airports and navaids, or visit the Reid Restricted Landing Area page at the main OurAirports website..